Year,Month,Day,Hour,Minute,Value (Times are PST for temperature in C)
2009,07,25,00,00,18.40
2009,07,25,00,05,18.40
2009,07,25,00,06,18.30
2009,07,25,00,07,18.30
2009,07,25,00,08,18.30
2009,07,25,00,09,18.30
2009,07,25,00,10,18.30
2009,07,25,00,11,18.30
2009,07,25,00,12,18.20
2009,07,25,00,13,18.20
2009,07,25,00,14,18.20
2009,07,25,00,15,18.20
2009,07,25,00,16,18.20
2009,07,25,00,17,18.20
2009,07,25,00,18,18.20
2009,07,25,00,19,18.20
2009,07,25,00,20,18.20
2009,07,25,00,21,18.20
2009,07,25,00,22,18.20
2009,07,25,00,23,18.20
2009,07,25,00,24,18.20
2009,07,25,00,25,18.20
2009,07,25,00,26,18.10
2009,07,25,00,27,18.10
2009,07,25,00,28,18.10
2009,07,25,00,29,18.10
2009,07,25,00,30,18.10
2009,07,25,00,31,18.10
2009,07,25,00,32,18.10
2009,07,25,00,33,18.10
2009,07,25,00,34,18.00
2009,07,25,00,35,18.00
2009,07,25,00,36,18.00
2009,07,25,00,37,18.00
2009,07,25,00,38,18.00
2009,07,25,00,39,18.00
2009,07,25,00,40,17.90
2009,07,25,00,41,17.90
2009,07,25,00,42,17.90
2009,07,25,00,43,17.90
2009,07,25,00,44,17.80
2009,07,25,00,45,17.80
2009,07,25,00,46,17.80
2009,07,25,00,47,17.80
2009,07,25,00,48,17.80
2009,07,25,00,49,17.80
2009,07,25,00,50,17.70
2009,07,25,00,51,17.70
2009,07,25,00,52,17.70
2009,07,25,00,53,17.70
2009,07,25,00,54,17.70
2009,07,25,00,55,17.70
2009,07,25,00,56,17.70
2009,07,25,00,57,17.70
2009,07,25,00,58,17.70
2009,07,25,00,59,17.60
2009,07,25,01,00,17.60
2009,07,25,01,01,17.60
2009,07,25,01,02,17.60
2009,07,25,01,03,17.60
2009,07,25,01,04,17.60
2009,07,25,01,05,17.60
2009,07,25,01,06,17.70
2009,07,25,01,07,17.60
2009,07,25,01,08,17.60
2009,07,25,01,09,17.60
2009,07,25,01,10,17.60
2009,07,25,01,11,17.60
2009,07,25,01,12,17.60
2009,07,25,01,13,17.60
2009,07,25,01,14,17.60
2009,07,25,01,15,17.60
2009,07,25,01,16,17.60
2009,07,25,01,17,17.50
2009,07,25,01,18,17.50
2009,07,25,01,19,17.50
2009,07,25,01,20,17.40
2009,07,25,01,21,17.40
2009,07,25,01,22,17.40
2009,07,25,01,23,17.40
2009,07,25,01,24,17.40
2009,07,25,01,25,17.40
2009,07,25,01,26,17.30
2009,07,25,01,27,17.30
2009,07,25,01,28,17.30
2009,07,25,01,29,17.30
2009,07,25,01,30,17.30
2009,07,25,01,31,17.30
2009,07,25,01,32,17.30
2009,07,25,01,33,17.30
2009,07,25,01,34,17.30
2009,07,25,01,35,17.30
2009,07,25,01,36,17.30
2009,07,25,01,37,17.20
2009,07,25,01,38,17.20
2009,07,25,01,39,17.20
2009,07,25,01,40,17.20
2009,07,25,01,41,17.20
2009,07,25,01,42,17.10
2009,07,25,01,43,17.10
2009,07,25,01,44,17.10
2009,07,25,01,45,17.10
2009,07,25,01,46,17.00
2009,07,25,01,47,17.00
2009,07,25,01,48,17.00
2009,07,25,01,49,17.00
2009,07,25,01,50,17.00
2009,07,25,01,51,17.00
2009,07,25,01,52,17.00
2009,07,25,01,53,17.00
2009,07,25,01,54,17.00
2009,07,25,01,55,17.00
2009,07,25,01,56,17.00
2009,07,25,01,57,17.00
2009,07,25,01,58,17.00
2009,07,25,01,59,17.00
2009,07,25,02,00,17.00
2009,07,25,02,01,17.00
2009,07,25,02,02,17.00
2009,07,25,02,03,17.00
2009,07,25,02,04,16.90
2009,07,25,02,05,16.90
2009,07,25,02,06,16.90
2009,07,25,02,07,16.90
2009,07,25,02,08,16.90
2009,07,25,02,09,16.90
2009,07,25,02,10,16.90
2009,07,25,02,11,16.90
2009,07,25,02,12,16.80
2009,07,25,02,13,16.80
2009,07,25,02,14,16.80
2009,07,25,02,15,16.80
2009,07,25,02,16,16.80
2009,07,25,02,17,16.80
2009,07,25,02,18,16.80
2009,07,25,02,19,16.70
2009,07,25,02,20,16.70
2009,07,25,02,21,16.70
2009,07,25,02,22,16.70
2009,07,25,02,23,16.70
2009,07,25,02,24,16.70
2009,07,25,02,25,16.70
2009,07,25,02,26,16.60
2009,07,25,02,27,16.60
2009,07,25,02,28,16.60
2009,07,25,02,29,16.60
2009,07,25,02,30,16.60
2009,07,25,02,31,16.60
2009,07,25,02,32,16.60
2009,07,25,02,33,16.70
2009,07,25,02,34,16.70
2009,07,25,02,35,16.70
2009,07,25,02,36,16.70
2009,07,25,02,37,16.70
2009,07,25,02,38,16.70
2009,07,25,02,39,16.60
2009,07,25,02,40,16.60
2009,07,25,02,41,16.60
2009,07,25,02,42,16.50
2009,07,25,02,43,16.50
2009,07,25,02,44,16.50
2009,07,25,02,45,16.40
2009,07,25,02,46,16.40
2009,07,25,02,47,16.40
2009,07,25,02,48,16.40
2009,07,25,02,49,16.40
2009,07,25,02,50,16.40
2009,07,25,02,51,16.40
2009,07,25,02,52,16.50
2009,07,25,02,53,16.50
2009,07,25,02,54,16.50
2009,07,25,02,55,16.60
2009,07,25,02,56,16.60
2009,07,25,02,57,16.60
2009,07,25,02,58,16.60
2009,07,25,02,59,16.50
2009,07,25,03,00,16.50
2009,07,25,03,01,16.50
2009,07,25,03,02,16.50
2009,07,25,03,03,16.50
2009,07,25,03,04,16.50
2009,07,25,03,05,16.50
2009,07,25,03,06,16.50
2009,07,25,03,07,16.40
2009,07,25,03,08,16.50
2009,07,25,03,09,16.50
2009,07,25,03,10,16.50
2009,07,25,03,11,16.50
2009,07,25,03,12,16.40
2009,07,25,03,13,16.40
2009,07,25,03,14,16.40
2009,07,25,03,15,16.40
2009,07,25,03,16,16.40
2009,07,25,03,17,16.40
2009,07,25,03,18,16.40
2009,07,25,03,19,16.30
2009,07,25,03,20,16.30
2009,07,25,03,21,16.30
2009,07,25,03,22,16.30
2009,07,25,03,23,16.30
2009,07,25,03,24,16.30
2009,07,25,03,25,16.20
2009,07,25,03,26,16.20
2009,07,25,03,27,16.20
2009,07,25,03,28,16.20
2009,07,25,03,29,16.10
2009,07,25,03,30,16.10
2009,07,25,03,31,16.10
2009,07,25,03,32,16.10
2009,07,25,03,33,16.10
2009,07,25,03,34,16.10
2009,07,25,03,35,16.10
2009,07,25,03,36,16.10
2009,07,25,03,37,16.10
2009,07,25,03,38,16.10
2009,07,25,03,39,16.10
2009,07,25,03,40,16.10
2009,07,25,03,41,16.10
2009,07,25,03,42,16.10
2009,07,25,03,43,16.10
2009,07,25,03,44,16.10
2009,07,25,03,45,16.10
2009,07,25,03,46,16.10
2009,07,25,03,47,16.10
2009,07,25,03,48,16.10
2009,07,25,03,49,16.10
2009,07,25,03,50,16.10
2009,07,25,03,51,16.10
2009,07,25,03,52,16.10
2009,07,25,03,53,16.10
2009,07,25,03,54,16.10
2009,07,25,03,55,16.10
2009,07,25,03,56,16.10
2009,07,25,03,57,16.10
2009,07,25,03,58,16.00
2009,07,25,03,59,16.00
2009,07,25,04,00,16.00
2009,07,25,04,01,15.90
2009,07,25,04,02,15.90
2009,07,25,04,03,15.90
2009,07,25,04,04,16.00
2009,07,25,04,05,16.00
2009,07,25,04,06,16.00
2009,07,25,04,07,16.00
2009,07,25,04,08,16.00
2009,07,25,04,09,16.00
2009,07,25,04,10,16.00
2009,07,25,04,11,16.00
2009,07,25,04,12,16.00
2009,07,25,04,13,16.00
2009,07,25,04,14,16.00
2009,07,25,04,15,15.90
2009,07,25,04,16,15.90
2009,07,25,04,17,15.90
2009,07,25,04,18,15.90
2009,07,25,04,19,15.90
2009,07,25,04,20,15.80
2009,07,25,04,21,15.80
2009,07,25,04,22,15.80
2009,07,25,04,23,15.80
2009,07,25,04,24,15.80
2009,07,25,04,25,15.80
2009,07,25,04,26,15.80
2009,07,25,04,27,15.70
2009,07,25,04,28,15.70
2009,07,25,04,29,15.70
2009,07,25,04,30,15.70
2009,07,25,04,31,15.70
2009,07,25,04,32,15.70
2009,07,25,04,33,15.70
2009,07,25,04,34,15.70
2009,07,25,04,35,15.80
2009,07,25,04,36,15.80
2009,07,25,04,37,15.80
2009,07,25,04,38,15.80
2009,07,25,04,39,15.80
2009,07,25,04,40,15.80
2009,07,25,04,41,15.80
2009,07,25,04,42,15.80
2009,07,25,04,43,15.90
2009,07,25,04,44,15.90
2009,07,25,04,45,15.90
2009,07,25,04,46,15.90
2009,07,25,04,47,16.00
2009,07,25,04,48,16.00
2009,07,25,04,49,16.00
2009,07,25,04,50,16.00
2009,07,25,04,51,16.00
2009,07,25,04,52,15.90
2009,07,25,04,53,15.90
2009,07,25,04,54,15.90
2009,07,25,04,55,15.90
2009,07,25,04,56,15.90
2009,07,25,04,57,15.90
2009,07,25,04,58,15.80
2009,07,25,04,59,15.80
2009,07,25,05,00,15.80
2009,07,25,05,01,15.70
2009,07,25,05,02,15.70
2009,07,25,05,03,15.70
2009,07,25,05,04,15.60
2009,07,25,05,05,15.60
2009,07,25,05,06,15.60
2009,07,25,05,07,15.60
2009,07,25,05,08,15.60
2009,07,25,05,09,15.60
2009,07,25,05,10,15.50
2009,07,25,05,11,15.50
2009,07,25,05,12,15.60
2009,07,25,05,13,15.60
2009,07,25,05,14,15.60
2009,07,25,05,15,15.60
2009,07,25,05,16,15.60
2009,07,25,05,17,15.70
2009,07,25,05,18,15.70
2009,07,25,05,19,15.70
2009,07,25,05,20,15.70
2009,07,25,05,21,15.70
2009,07,25,05,22,15.70
2009,07,25,05,23,15.70
2009,07,25,05,24,15.80
2009,07,25,05,25,15.80
2009,07,25,05,26,15.80
2009,07,25,05,27,15.80
2009,07,25,05,28,15.80
2009,07,25,05,29,15.90
2009,07,25,05,30,15.90
2009,07,25,05,31,15.90
2009,07,25,05,32,15.90
2009,07,25,05,33,15.90
2009,07,25,05,34,15.90
2009,07,25,05,35,15.90
2009,07,25,05,36,16.00
2009,07,25,05,37,16.00
2009,07,25,05,38,16.00
2009,07,25,05,39,16.00
2009,07,25,05,40,16.00
2009,07,25,05,41,16.00
2009,07,25,05,42,16.10
2009,07,25,05,43,16.10
2009,07,25,05,44,16.10
2009,07,25,05,45,16.00
2009,07,25,05,46,16.00
2009,07,25,05,47,16.00
2009,07,25,05,48,16.10
2009,07,25,05,49,16.00
2009,07,25,05,50,16.10
2009,07,25,05,51,16.10
2009,07,25,05,52,16.10
2009,07,25,05,53,16.10
2009,07,25,05,54,16.10
2009,07,25,05,55,16.10
2009,07,25,05,56,16.10
2009,07,25,05,57,16.10
2009,07,25,05,58,16.10
2009,07,25,05,59,16.10
2009,07,25,06,00,16.10
2009,07,25,06,01,16.10
2009,07,25,06,02,16.10
2009,07,25,06,03,16.10
2009,07,25,06,04,16.10
2009,07,25,06,05,16.10
2009,07,25,06,06,16.10
2009,07,25,06,07,16.10
2009,07,25,06,08,16.10
2009,07,25,06,09,16.00
2009,07,25,06,10,16.00
2009,07,25,06,11,16.00
2009,07,25,06,12,16.00
2009,07,25,06,13,16.00
2009,07,25,06,14,16.00
2009,07,25,06,15,16.10
2009,07,25,06,16,16.10
2009,07,25,06,17,16.10
2009,07,25,06,18,16.10
2009,07,25,06,19,16.20
2009,07,25,06,20,16.20
2009,07,25,06,21,16.20
2009,07,25,06,22,16.20
2009,07,25,06,23,16.30
2009,07,25,06,24,16.30
2009,07,25,06,25,16.40
2009,07,25,06,26,16.50
2009,07,25,06,27,16.60
2009,07,25,06,28,16.70
2009,07,25,06,29,16.70
2009,07,25,06,30,16.80
2009,07,25,06,31,16.80
2009,07,25,06,32,16.90
2009,07,25,06,33,16.90
2009,07,25,06,34,17.00
2009,07,25,06,35,17.10
2009,07,25,06,36,17.20
2009,07,25,06,37,17.20
2009,07,25,06,38,17.30
2009,07,25,06,39,17.30
2009,07,25,06,40,17.40
2009,07,25,06,41,17.50
2009,07,25,06,42,17.60
2009,07,25,06,43,17.60
2009,07,25,06,44,17.70
2009,07,25,06,45,17.70
2009,07,25,06,46,17.80
2009,07,25,06,47,17.80
2009,07,25,06,48,17.90
2009,07,25,06,49,17.90
2009,07,25,06,50,17.90
2009,07,25,06,51,18.00
2009,07,25,06,52,18.00
2009,07,25,06,53,18.10
2009,07,25,06,54,18.10
2009,07,25,06,55,18.10
2009,07,25,06,56,18.20
2009,07,25,06,57,18.20
2009,07,25,06,58,18.20
2009,07,25,06,59,18.20
2009,07,25,07,00,18.30
2009,07,25,07,01,18.30
2009,07,25,07,02,18.30
2009,07,25,07,03,18.30
2009,07,25,07,04,18.30
2009,07,25,07,05,18.40
2009,07,25,07,06,18.40
2009,07,25,07,07,18.40
2009,07,25,07,08,18.50
2009,07,25,07,09,18.60
2009,07,25,07,10,18.60
2009,07,25,07,11,18.60
2009,07,25,07,12,18.60
2009,07,25,07,13,18.60
2009,07,25,07,14,18.70
2009,07,25,07,15,18.70
2009,07,25,07,16,18.70
2009,07,25,07,17,18.70
2009,07,25,07,18,18.70
2009,07,25,07,19,18.80
2009,07,25,07,20,18.80
2009,07,25,07,21,18.80
2009,07,25,07,22,18.80
2009,07,25,07,23,18.90
2009,07,25,07,24,18.90
2009,07,25,07,25,18.90
2009,07,25,07,26,18.90
2009,07,25,07,27,18.90
2009,07,25,07,28,18.90
2009,07,25,07,29,19.00
2009,07,25,07,30,19.00
2009,07,25,07,31,19.00
2009,07,25,07,32,19.00
2009,07,25,07,33,18.90
2009,07,25,07,34,18.90
2009,07,25,07,35,18.90
2009,07,25,07,36,18.90
2009,07,25,07,37,18.90
2009,07,25,07,38,18.90
2009,07,25,07,39,18.90
2009,07,25,07,40,18.90
2009,07,25,07,41,18.90
2009,07,25,07,42,18.90
2009,07,25,07,43,18.90
2009,07,25,07,44,19.00
2009,07,25,07,45,19.00
2009,07,25,07,46,19.00
2009,07,25,07,47,19.00
2009,07,25,07,48,19.00
2009,07,25,07,49,19.00
2009,07,25,07,50,18.90
2009,07,25,07,51,18.90
2009,07,25,07,52,18.90
2009,07,25,07,53,18.90
2009,07,25,07,54,19.00
2009,07,25,07,55,19.10
2009,07,25,07,56,19.10
2009,07,25,07,57,19.10
2009,07,25,07,58,19.10
2009,07,25,07,59,19.10
2009,07,25,08,00,19.10
2009,07,25,08,01,19.10
2009,07,25,08,02,19.10
2009,07,25,08,03,19.10
2009,07,25,08,04,19.10
2009,07,25,08,05,19.20
2009,07,25,08,06,19.20
2009,07,25,08,07,19.20
2009,07,25,08,08,19.10
2009,07,25,08,09,19.20
2009,07,25,08,10,19.20
2009,07,25,08,11,19.20
2009,07,25,08,12,19.20
2009,07,25,08,13,19.20
2009,07,25,08,14,19.30
2009,07,25,08,15,19.30
2009,07,25,08,16,19.30
2009,07,25,08,17,19.30
2009,07,25,08,18,19.30
2009,07,25,08,19,19.30
2009,07,25,08,20,19.40
2009,07,25,08,21,19.40
2009,07,25,08,22,19.50
2009,07,25,08,23,19.50
2009,07,25,08,24,19.50
2009,07,25,08,25,19.50
2009,07,25,08,26,19.50
2009,07,25,08,27,19.60
2009,07,25,08,28,19.60
2009,07,25,08,29,19.60
2009,07,25,08,30,19.60
2009,07,25,08,31,19.60
2009,07,25,08,32,19.70
2009,07,25,08,33,19.70
2009,07,25,08,34,19.70
2009,07,25,08,35,19.80
2009,07,25,08,36,19.80
2009,07,25,08,37,19.90
2009,07,25,08,38,20.00
2009,07,25,08,39,20.00
2009,07,25,08,40,20.00
2009,07,25,08,41,20.10
2009,07,25,08,42,20.10
2009,07,25,08,43,20.20
2009,07,25,08,44,20.20
2009,07,25,08,45,20.20
2009,07,25,08,46,20.30
2009,07,25,08,47,20.30
2009,07,25,08,48,20.40
2009,07,25,08,49,20.40
2009,07,25,08,50,20.50
2009,07,25,08,51,20.60
2009,07,25,08,52,20.60
2009,07,25,08,53,20.60
2009,07,25,08,54,20.60
2009,07,25,08,55,20.70
2009,07,25,08,56,20.70
2009,07,25,08,57,20.70
2009,07,25,08,58,20.70
2009,07,25,08,59,20.70
2009,07,25,09,00,20.70
2009,07,25,09,01,20.80
2009,07,25,09,02,20.80
2009,07,25,09,03,20.80
2009,07,25,09,04,20.80
2009,07,25,09,05,20.80
2009,07,25,09,06,20.80
2009,07,25,09,07,20.90
2009,07,25,09,08,20.90
2009,07,25,09,09,20.90
2009,07,25,09,10,21.00
2009,07,25,09,11,21.00
2009,07,25,09,12,21.10
2009,07,25,09,13,21.10
2009,07,25,09,14,21.10
2009,07,25,09,15,21.00
2009,07,25,09,16,21.00
2009,07,25,09,17,20.90
2009,07,25,09,18,20.80
2009,07,25,09,19,20.70
2009,07,25,09,20,20.60
2009,07,25,09,21,20.50
2009,07,25,09,22,20.30
2009,07,25,09,23,20.30
2009,07,25,09,24,20.20
2009,07,25,09,25,20.10
2009,07,25,09,26,20.00
2009,07,25,09,27,20.00
2009,07,25,09,28,19.90
2009,07,25,09,29,19.90
2009,07,25,09,30,19.90
2009,07,25,09,31,19.90
2009,07,25,09,32,19.90
2009,07,25,09,33,19.80
2009,07,25,09,34,19.80
2009,07,25,09,35,19.90
2009,07,25,09,36,19.90
2009,07,25,09,37,19.90
2009,07,25,09,38,20.00
2009,07,25,09,39,20.10
2009,07,25,09,40,20.10
2009,07,25,09,41,20.20
2009,07,25,09,42,20.20
2009,07,25,09,43,20.20
2009,07,25,09,44,20.20
2009,07,25,09,45,20.20
2009,07,25,09,46,20.10
2009,07,25,09,47,20.10
2009,07,25,09,48,20.20
2009,07,25,09,49,20.20
2009,07,25,09,50,20.30
2009,07,25,09,51,20.30
2009,07,25,09,52,20.30
2009,07,25,09,53,20.20
2009,07,25,09,54,20.20
2009,07,25,09,55,20.10
2009,07,25,09,56,20.10
2009,07,25,09,57,20.10
2009,07,25,09,58,20.10
2009,07,25,09,59,20.10
2009,07,25,10,00,20.10
2009,07,25,10,01,20.20
2009,07,25,10,02,20.30
2009,07,25,10,03,20.30
2009,07,25,10,04,20.40
2009,07,25,10,05,20.40
2009,07,25,10,06,20.40
2009,07,25,10,07,20.40
2009,07,25,10,08,20.40
2009,07,25,10,09,20.40
2009,07,25,10,10,20.40
2009,07,25,10,11,20.40
2009,07,25,10,12,20.40
2009,07,25,10,13,20.50
2009,07,25,10,14,20.50
2009,07,25,10,15,20.40
2009,07,25,10,16,20.40
2009,07,25,10,17,20.30
2009,07,25,10,18,20.30
2009,07,25,10,19,20.20
2009,07,25,10,20,20.20
2009,07,25,10,21,20.20
2009,07,25,10,22,20.10
2009,07,25,10,23,20.10
2009,07,25,10,24,20.10
2009,07,25,10,25,20.20
2009,07,25,10,26,20.20
2009,07,25,10,27,20.20
2009,07,25,10,28,20.30
2009,07,25,10,29,20.40
2009,07,25,10,30,20.60
2009,07,25,10,31,20.70
2009,07,25,10,32,20.80
2009,07,25,10,33,20.90
2009,07,25,10,34,21.00
2009,07,25,10,35,21.10
2009,07,25,10,36,21.10
2009,07,25,10,37,21.10
2009,07,25,10,38,21.10
2009,07,25,10,39,21.00
2009,07,25,10,40,20.90
2009,07,25,10,41,20.90
2009,07,25,10,42,21.00
2009,07,25,10,43,21.00
2009,07,25,10,44,21.10
2009,07,25,10,45,21.20
2009,07,25,10,46,21.20
2009,07,25,10,47,21.10
2009,07,25,10,48,21.10
2009,07,25,10,49,21.00
2009,07,25,10,50,21.00
2009,07,25,10,51,21.10
2009,07,25,10,52,21.10
2009,07,25,10,53,21.20
2009,07,25,10,54,21.20
2009,07,25,10,55,21.30
2009,07,25,10,56,21.30
2009,07,25,10,57,21.30
2009,07,25,10,58,21.20
2009,07,25,10,59,21.20
2009,07,25,11,00,21.10
2009,07,25,11,01,21.10
2009,07,25,11,02,21.10
2009,07,25,11,03,21.00
2009,07,25,11,04,21.00
2009,07,25,11,05,21.10
2009,07,25,11,06,21.10
2009,07,25,11,07,21.10
2009,07,25,11,08,21.10
2009,07,25,11,09,21.10
2009,07,25,11,10,21.10
2009,07,25,11,11,21.00
2009,07,25,11,12,20.90
2009,07,25,11,13,20.80
2009,07,25,11,14,20.90
2009,07,25,11,15,20.90
2009,07,25,11,16,20.90
2009,07,25,11,17,21.00
2009,07,25,11,18,21.10
2009,07,25,11,19,21.20
2009,07,25,11,20,21.20
2009,07,25,11,21,21.30
2009,07,25,11,22,21.30
2009,07,25,11,23,21.30
2009,07,25,11,24,21.30
2009,07,25,11,25,21.30
2009,07,25,11,26,21.40
2009,07,25,11,27,21.50
2009,07,25,11,28,21.50
2009,07,25,11,29,21.60
2009,07,25,11,30,21.60
2009,07,25,11,31,21.70
2009,07,25,11,32,21.80
2009,07,25,11,33,21.80
2009,07,25,11,34,21.70
2009,07,25,11,35,21.70
2009,07,25,11,36,21.70
2009,07,25,11,37,21.80
2009,07,25,11,38,21.80
2009,07,25,11,39,21.90
2009,07,25,11,40,21.90
2009,07,25,11,41,21.90
2009,07,25,11,42,21.80
2009,07,25,11,43,21.70
2009,07,25,11,44,21.80
2009,07,25,11,45,21.80
2009,07,25,11,46,21.80
2009,07,25,11,47,21.90
2009,07,25,11,48,22.00
2009,07,25,11,49,22.00
2009,07,25,11,50,22.10
2009,07,25,11,51,22.10
2009,07,25,11,52,22.20
2009,07,25,11,53,22.20
2009,07,25,11,54,22.30
2009,07,25,11,55,22.30
2009,07,25,11,56,22.20
2009,07,25,11,57,22.30
2009,07,25,11,58,22.40
2009,07,25,11,59,22.40
2009,07,25,12,00,22.50
2009,07,25,12,01,22.50
2009,07,25,12,02,22.40
2009,07,25,12,03,22.30
2009,07,25,12,04,22.20
2009,07,25,12,05,22.20
2009,07,25,12,06,22.30
2009,07,25,12,07,22.30
2009,07,25,12,08,22.20
2009,07,25,12,09,22.20
2009,07,25,12,10,22.20
2009,07,25,12,11,22.10
2009,07,25,12,12,22.10
2009,07,25,12,13,22.10
2009,07,25,12,14,22.10
2009,07,25,12,15,22.10
2009,07,25,12,16,22.20
2009,07,25,12,17,22.30
2009,07,25,12,18,22.30
2009,07,25,12,19,22.40
2009,07,25,12,20,22.40
2009,07,25,12,21,22.40
2009,07,25,12,22,22.40
2009,07,25,12,23,22.40
2009,07,25,12,24,22.40
2009,07,25,12,25,22.40
2009,07,25,12,26,22.40
2009,07,25,12,27,22.40
2009,07,25,12,28,22.40
2009,07,25,12,29,22.50
2009,07,25,12,30,22.60
2009,07,25,12,31,22.60
2009,07,25,12,32,22.60
2009,07,25,12,33,22.80
2009,07,25,12,34,22.90
2009,07,25,12,35,23.00
2009,07,25,12,36,23.10
2009,07,25,12,37,23.10
2009,07,25,12,38,23.10
2009,07,25,12,39,23.20
2009,07,25,12,40,23.20
2009,07,25,12,41,23.30
2009,07,25,12,42,23.30
2009,07,25,12,43,23.20
2009,07,25,12,44,23.20
2009,07,25,12,45,23.20
2009,07,25,12,46,23.20
2009,07,25,12,47,23.30
2009,07,25,12,48,23.30
2009,07,25,12,49,23.40
2009,07,25,12,50,23.40
2009,07,25,12,51,23.40
2009,07,25,12,52,23.40
2009,07,25,12,53,23.30
2009,07,25,12,54,23.30
2009,07,25,12,55,23.30
2009,07,25,12,56,23.30
2009,07,25,12,57,23.30
2009,07,25,12,58,23.30
2009,07,25,12,59,23.30
2009,07,25,13,00,23.40
2009,07,25,13,01,23.40
2009,07,25,13,02,23.30
2009,07,25,13,03,23.30
2009,07,25,13,04,23.30
2009,07,25,13,05,23.30
2009,07,25,13,06,23.30
2009,07,25,13,07,23.30
2009,07,25,13,08,23.20
2009,07,25,13,09,23.20
2009,07,25,13,10,23.20
2009,07,25,13,11,23.20
2009,07,25,13,12,23.20
2009,07,25,13,13,23.30
2009,07,25,13,14,23.40
2009,07,25,13,15,23.40
2009,07,25,13,16,23.50
2009,07,25,13,17,23.60
2009,07,25,13,18,23.70
2009,07,25,13,19,23.70
2009,07,25,13,20,23.60
2009,07,25,13,21,23.60
2009,07,25,13,22,23.60
2009,07,25,13,23,23.70
2009,07,25,13,24,23.70
2009,07,25,13,25,23.80
2009,07,25,13,26,23.90
2009,07,25,13,27,24.10
2009,07,25,13,28,24.20
2009,07,25,13,29,24.20
2009,07,25,13,30,24.30
2009,07,25,13,31,24.30
2009,07,25,13,32,24.30
2009,07,25,13,33,24.40
2009,07,25,13,34,24.30
2009,07,25,13,35,24.20
2009,07,25,13,36,24.20
2009,07,25,13,37,24.20
2009,07,25,13,38,24.30
2009,07,25,13,39,24.30
2009,07,25,13,40,24.40
2009,07,25,13,41,24.40
2009,07,25,13,42,24.40
2009,07,25,13,43,24.40
2009,07,25,13,44,24.40
2009,07,25,13,45,24.50
2009,07,25,13,46,24.50
2009,07,25,13,47,24.50
2009,07,25,13,48,24.40
2009,07,25,13,49,24.40
2009,07,25,13,50,24.30
2009,07,25,13,51,24.40
2009,07,25,13,52,24.50
2009,07,25,13,53,24.60
2009,07,25,13,54,24.60
2009,07,25,13,55,24.70
2009,07,25,13,56,24.80
2009,07,25,13,57,25.00
2009,07,25,13,58,25.10
2009,07,25,13,59,25.20
2009,07,25,14,00,25.20
2009,07,25,14,01,25.20
2009,07,25,14,02,25.20
2009,07,25,14,03,25.30
2009,07,25,14,04,25.20
2009,07,25,14,05,25.20
2009,07,25,14,06,25.10
2009,07,25,14,07,25.10
2009,07,25,14,08,25.10
2009,07,25,14,09,25.20
2009,07,25,14,10,25.10
2009,07,25,14,11,25.10
2009,07,25,14,12,25.10
2009,07,25,14,13,25.20
2009,07,25,14,14,25.20
2009,07,25,14,15,25.20
2009,07,25,14,16,25.00
2009,07,25,14,17,24.90
2009,07,25,14,18,24.90
2009,07,25,14,19,25.00
2009,07,25,14,20,25.00
2009,07,25,14,21,25.10
2009,07,25,14,22,25.10
2009,07,25,14,23,25.00
2009,07,25,14,24,25.00
2009,07,25,14,25,25.00
2009,07,25,14,26,25.10
2009,07,25,14,27,25.20
2009,07,25,14,28,25.30
2009,07,25,14,29,25.30
2009,07,25,14,30,25.30
2009,07,25,14,31,25.30
2009,07,25,14,32,25.30
2009,07,25,14,33,25.10
2009,07,25,14,34,25.00
2009,07,25,14,35,25.00
2009,07,25,14,36,25.00
2009,07,25,14,37,24.90
2009,07,25,14,38,24.80
2009,07,25,14,39,24.80
2009,07,25,14,40,24.90
2009,07,25,14,41,25.10
2009,07,25,14,42,25.20
2009,07,25,14,43,25.40
2009,07,25,14,44,25.60
2009,07,25,14,45,25.80
2009,07,25,14,46,25.80
2009,07,25,14,47,25.90
2009,07,25,14,48,25.90
2009,07,25,14,49,25.90
2009,07,25,14,50,26.00
2009,07,25,14,51,26.20
2009,07,25,14,52,26.30
2009,07,25,14,53,26.40
2009,07,25,14,54,26.60
2009,07,25,14,55,26.70
2009,07,25,14,56,26.80
2009,07,25,14,57,26.80
2009,07,25,14,58,26.80
2009,07,25,14,59,26.70
2009,07,25,15,00,26.80
2009,07,25,15,01,26.80
2009,07,25,15,02,26.70
2009,07,25,15,03,26.60
2009,07,25,15,04,26.40
2009,07,25,15,05,26.20
2009,07,25,15,06,26.00
2009,07,25,15,07,25.90
2009,07,25,15,08,25.80
2009,07,25,15,09,25.70
2009,07,25,15,10,25.70
2009,07,25,15,11,25.70
2009,07,25,15,12,25.70
2009,07,25,15,13,25.60
2009,07,25,15,14,25.50
2009,07,25,15,15,25.30
2009,07,25,15,16,25.30
2009,07,25,15,17,25.30
2009,07,25,15,18,25.40
2009,07,25,15,19,25.40
2009,07,25,15,20,25.60
2009,07,25,15,21,25.70
2009,07,25,15,22,25.70
2009,07,25,15,23,25.80
2009,07,25,15,24,25.70
2009,07,25,15,25,25.70
2009,07,25,15,26,25.70
2009,07,25,15,27,25.70
2009,07,25,15,28,25.80
2009,07,25,15,29,25.90
2009,07,25,15,30,26.00
2009,07,25,15,31,26.10
2009,07,25,15,32,26.10
2009,07,25,15,33,26.10
2009,07,25,15,34,26.20
2009,07,25,15,35,26.20
2009,07,25,15,36,26.20
2009,07,25,15,37,26.20
2009,07,25,15,38,26.10
2009,07,25,15,39,26.10
2009,07,25,15,40,26.20
2009,07,25,15,41,26.20
2009,07,25,15,42,26.20
2009,07,25,15,43,26.30
2009,07,25,15,44,26.30
2009,07,25,15,45,26.30
2009,07,25,15,46,26.40
2009,07,25,15,47,26.50
2009,07,25,15,48,26.60
2009,07,25,15,49,26.70
2009,07,25,15,50,26.80
2009,07,25,15,51,26.80
2009,07,25,15,52,26.80
2009,07,25,15,53,26.90
2009,07,25,15,54,27.00
2009,07,25,15,55,27.00
2009,07,25,15,56,27.10
2009,07,25,15,57,27.20
2009,07,25,15,58,27.20
2009,07,25,15,59,27.20
2009,07,25,16,00,27.10
2009,07,25,16,01,27.10
2009,07,25,16,02,27.10
2009,07,25,16,03,27.20
2009,07,25,16,04,27.10
2009,07,25,16,05,27.10
2009,07,25,16,06,27.00
2009,07,25,16,07,27.00
2009,07,25,16,08,27.00
2009,07,25,16,09,26.90
2009,07,25,16,10,26.80
2009,07,25,16,11,26.70
2009,07,25,16,12,26.60
2009,07,25,16,13,26.60
2009,07,25,16,14,26.60
2009,07,25,16,15,26.60
2009,07,25,16,16,26.70
2009,07,25,16,17,26.90
2009,07,25,16,18,27.00
2009,07,25,16,19,27.10
2009,07,25,16,20,27.10
2009,07,25,16,21,27.10
2009,07,25,16,22,27.10
2009,07,25,16,23,27.10
2009,07,25,16,24,27.10
2009,07,25,16,25,27.10
2009,07,25,16,26,27.10
2009,07,25,16,27,27.10
2009,07,25,16,28,27.10
2009,07,25,16,29,27.10
2009,07,25,16,30,27.10
2009,07,25,16,31,27.10
2009,07,25,16,32,27.10
2009,07,25,16,33,27.10
2009,07,25,16,34,27.10
2009,07,25,16,35,27.20
2009,07,25,16,36,27.20
2009,07,25,16,37,27.30
2009,07,25,16,38,27.40
2009,07,25,16,39,27.50
2009,07,25,16,40,27.50
2009,07,25,16,41,27.50
2009,07,25,16,42,27.40
2009,07,25,16,43,27.40
2009,07,25,16,44,27.50
2009,07,25,16,45,27.50
2009,07,25,16,46,27.60
2009,07,25,16,47,27.70
2009,07,25,16,48,27.70
2009,07,25,16,49,27.70
2009,07,25,16,50,27.70
2009,07,25,16,51,27.70
2009,07,25,16,52,27.70
2009,07,25,16,53,27.70
2009,07,25,16,54,27.70
2009,07,25,16,55,27.70
2009,07,25,16,56,27.70
2009,07,25,16,57,27.70
2009,07,25,16,58,27.80
2009,07,25,16,59,27.80
2009,07,25,17,00,27.80
2009,07,25,17,01,27.70
2009,07,25,17,02,27.70
2009,07,25,17,03,27.80
2009,07,25,17,04,27.80
2009,07,25,17,05,27.80
2009,07,25,17,06,27.80
2009,07,25,17,07,27.80
2009,07,25,17,08,27.90
2009,07,25,17,09,27.90
2009,07,25,17,10,27.90
2009,07,25,17,11,27.90
2009,07,25,17,12,28.00
2009,07,25,17,13,28.10
2009,07,25,17,14,28.00
2009,07,25,17,15,28.00
2009,07,25,17,16,27.90
2009,07,25,17,17,27.80
2009,07,25,17,18,27.70
2009,07,25,17,19,27.70
2009,07,25,17,20,27.70
2009,07,25,17,21,27.70
2009,07,25,17,22,27.60
2009,07,25,17,23,27.60